Terug naar catalogus

SOYUZ MS-29

ActiefMilitairVLEO
NORAD 100057·PAYLOAD·🇷🇺 Russia

Gelanceerd Jul 14, 2026 vanaf Baikonur Cosmodrome

Loading…

Volgende Passages (komende 24 uur)

TLE

VersSource: Space-Track

Epoch: Sep 14, 2026, 08:04 UTC

1 A0057U 26162A   26257.33674862  .00004921  00000-0  97059-4 0  9990
2 A0057  51.6309 218.8707 0004933 140.1115 220.0237 15.49109585586746

Volg SOYUZ MS-29 in realtime met AllMySat

Download on the App Store